EW8578 Weather Reports


time (UTC)temp
C
wind
direction
speed
KPH
gust
KPH
rain 1hr
cm
rain 24hr
cm
rain mn
cm
humidity
%
barometer
mb
20260506023532 1 94 3.2 6.4 0.00 0.15 0.00 84 1013.9
20260506023032 1 98 3.2 6.4 0.00 0.15 0.00 84 1013.9
20260506022530 1 94 3.2 6.4 0.00 0.15 0.00 84 1013.9
20260506022030 1 98 3.2 6.4 0.00 0.15 0.00 83 1014.0
20260506021530 2 106 3.2 6.4 0.00 0.15 0.00 83 1014.0
20260506021030 2 98 3.2 4.8 0.00 0.15 0.00 82 1013.9
20260506020529 2 136 3.2 4.8 0.00 0.15 0.00 82 1013.9
20260506020030 2 103 1.6 4.8 0.00 0.15 0.00 82 1013.9
20260506015532 2 115 3.2 6.4 0.00 0.15 0.00 82 1013.9
20260506015130 2 136 3.2 4.8 0.00 0.15 0.00 82 1014.0
20260506014542 2 109 1.6 4.8 0.00 0.15 0.00 82 1014.0
20260506014028 2 344 1.6 6.4 0.00 0.15 0.00 82 1014.2
20260506013527 2 325 1.6 6.4 0.00 0.15 0.00 82 1014.2
20260506013029 1 110 1.6 4.8 0.00 0.15 0.00 81 1014.2
20260506012525 1 80 0.0 6.4 0.00 0.15 0.00 80 1014.1
20260506012024 1 86 1.6 6.4 0.00 0.15 0.00 80 1014.0
20260506011526 1 96 3.2 6.4 0.00 0.15 0.00 80 1014.0
20260506011023 1 104 4.8 6.4 0.00 0.15 0.00 80 1013.9
20260506010523 1 90 3.2 6.4 0.00 0.15 0.00 79 1013.8
20260506010027 1 107 3.2 6.4 0.00 0.15 0.00 78 1013.9
20260506005521 1 89 3.2 6.4 0.00 0.15 0.00 79 1013.9
20260506005121 1 98 4.8 9.7 0.00 0.15 0.00 79 1013.8
20260506004534 1 109 4.8 9.7 0.00 0.15 0.00 79 1013.8
20260506004021 1 164 3.2 11.3 0.00 0.15 0.00 79 1013.8
20260506003521 1 108 6.4 11.3 0.00 0.15 0.00 79 1013.7
20260506003020 1 97 6.4 11.3 0.00 0.15 0.00 80 1013.7
20260506002519 1 95 6.4 11.3 0.00 0.15 0.00 80 1013.7
20260506002019 1 93 6.4 11.3 0.00 0.15 0.00 80 1013.8
20260506001518 1 90 6.4 11.3 0.00 0.15 0.00 81 1013.8
20260506001018 1 90 6.4 11.3 0.00 0.15 0.00 81 1014.0
20260506000516 1 109 6.4 9.7 0.00 0.15 0.15 81 1014.0
20260506000019 1 96 4.8 9.7 0.00 0.15 0.15 81 1014.0
20260505235516 1 101 6.4 9.7 0.00 0.15 0.15 81 1014.0
20260505235116 1 117 6.4 9.7 0.00 0.15 0.15 81 1014.1
20260505234518 1 96 6.4 9.7 0.00 0.15 0.15 81 1014.1
20260505234014 1 103 6.4 9.7 0.00 0.15 0.15 81 1014.0
20260505233516 1 107 4.8 9.7 0.00 0.15 0.15 81 1014.0
20260505233013 1 105 6.4 9.7 0.00 0.15 0.15 82 1014.0
20260505232514 1 98 4.8 11.3 0.00 0.15 0.15 82 1014.0
20260505232012 1 98 6.4 11.3 0.00 0.15 0.15 82 1014.0
20260505231612 1 106 4.8 11.3 0.00 0.15 0.15 82 1014.0
20260505231011 1 90 4.8 9.7 0.00 0.15 0.15 81 1013.9
20260505230516 1 96 4.8 11.3 0.00 0.15 0.15 81 1013.9
20260505230015 1 100 6.4 11.3 0.00 0.15 0.15 81 1013.9
20260505225511 1 88 4.8 11.3 0.00 0.15 0.15 81 1014.0
20260505225114 2 80 4.8 9.7 0.00 0.15 0.15 82 1014.0
20260505224514 1 101 4.8 9.7 0.00 0.15 0.15 82 1014.0
20260505224013 1 103 4.8 9.7 0.00 0.15 0.15 81 1014.0
20260505223517 1 109 4.8 9.7 0.00 0.15 0.15 81 1014.0
20260505223012 1 109 3.2 6.4 0.00 0.15 0.15 81 1014.0
20260505222512 2 101 3.2 9.7 0.00 0.15 0.15 80 1014.0
20260505222012 2 113 4.8 9.7 0.00 0.15 0.15 80 1014.0
20260505221511 2 111 4.8 11.3 0.00 0.15 0.15 80 1014.0
20260505221012 2 105 4.8 11.3 0.00 0.15 0.15 81 1014.0
20260505220510 2 94 6.4 8.0 0.00 0.15 0.15 81 1013.9
20260505220023 2 103 6.4 9.7 0.00 0.15 0.15 81 1014.0
20260505215512 2 101 4.8 9.7 0.00 0.15 0.15 81 1013.9
20260505215109 2 113 4.8 9.7 0.00 0.15 0.15 80 1013.9
20260505214513 2 108 3.2 9.7 0.00 0.15 0.15 80 1013.8
20260505214008 2 107 6.4 9.7 0.00 0.15 0.15 80 1013.7
20260505213508 2 105 4.8 9.7 0.00 0.15 0.15 80 1013.7
20260505213009 2 107 6.4 9.7 0.00 0.15 0.15 80 1013.7
20260505212508 2 101 4.8 9.7 0.00 0.15 0.15 80 1013.7
20260505212008 2 109 4.8 9.7 0.00 0.15 0.15 80 1013.6
20260505211507 2 109 6.4 9.7 0.00 0.15 0.15 80 1013.7
20260505211010 2 101 4.8 6.4 0.00 0.15 0.15 81 1013.7
20260505210506 2 112 4.8 9.7 0.00 0.15 0.15 80 1013.7
20260505210008 2 97 3.2 9.7 0.00 0.15 0.15 80 1013.7
20260505205513 2 107 4.8 9.7 0.00 0.15 0.15 80 1013.6
20260505205106 2 109 4.8 9.7 0.00 0.15 0.15 80 1013.6
20260505204514 2 112 4.8 9.7 0.00 0.15 0.15 79 1013.6
20260505204106 2 107 4.8 9.7 0.00 0.15 0.15 79 1013.6
20260505203505 2 112 4.8 9.7 0.00 0.15 0.15 79 1013.6
20260505203005 2 88 4.8 6.4 0.00 0.15 0.15 79 1013.6
20260505202505 2 101 4.8 9.7 0.00 0.15 0.15 78 1013.6
20260505202005 3 95 3.2 6.4 0.00 0.15 0.15 78 1013.6
20260505201505 3 103 3.2 6.4 0.00 0.15 0.15 78 1013.6
20260505201004 3 101 4.8 9.7 0.00 0.15 0.15 78 1013.6
20260505200512 3 102 4.8 9.7 0.00 0.15 0.15 77 1013.6
20260505200008 3 94 3.2 9.7 0.00 0.15 0.15 77 1013.7
20260505195503 3 76 4.8 9.7 0.00 0.15 0.15 76 1013.7
20260505195104 4 103 4.8 12.9 0.00 0.15 0.15 75 1013.7
20260505194505 4 92 4.8 12.9 0.00 0.15 0.15 75 1013.6
20260505194006 4 49 6.4 19.3 0.00 0.15 0.15 74 1013.7
20260505193503 5 41 8.0 19.3 0.00 0.15 0.15 74 1013.6
20260505193009 5 28 1.6 4.8 0.00 0.15 0.15 71 1013.4
20260505192502 5 43 1.6 4.8 0.00 0.15 0.15 72 1013.4
20260505192002 5 71 1.6 4.8 0.00 0.15 0.15 71 1013.3
20260505191606 5 26 0.0 6.4 0.00 0.15 0.15 71 1013.3
20260505191101 5 39 0.0 6.4 0.00 0.15 0.15 71 1013.2
20260505190601 5 67 1.6 6.4 0.00 0.15 0.15 71 1013.1
20260505190118 5 55 3.2 11.3 0.00 0.15 0.15 69 1013.1
20260505185559 5 53 4.8 9.7 0.00 0.15 0.15 69 1013.1
20260505185059 5 360 1.6 6.4 0.00 0.15 0.15 69 1013.1
20260505184609 5 9 1.6 6.4 0.00 0.15 0.15 69 1013.1
20260505184100 5 5 1.6 3.2 0.00 0.15 0.15 69 1013.1
20260505183659 5 125 0.0 4.8 0.00 0.15 0.15 69 1013.1
20260505183058 5 120 1.6 6.4 0.00 0.15 0.15 70 1013.0
20260505182557 5 46 3.2 12.9 0.00 0.15 0.15 71 1013.0
20260505182101 4 60 4.8 12.9 0.00 0.15 0.15 73 1013.0
20260505181600 4 90 4.8 11.3 0.00 0.15 0.15 75 1013.0
20260505181102 4 92 3.2 16.1 0.00 0.15 0.15 74 1013.0
20260505180559 4 92 6.4 16.1 0.00 0.15 0.15 74 1013.0
20260505180056 3 92 8.0 16.1 0.00 0.15 0.15 74 1013.1
20260505175557 3 27 4.8 14.5 0.00 0.15 0.15 74 1013.1
20260505175057 4 24 4.8 25.7 0.00 0.15 0.15 75 1013.2
20260505174558 5 5 4.8 25.7 0.00 0.15 0.15 75 1013.3
20260505174058 5 360 14.5 24.1 0.00 0.15 0.15 73 1013.2
20260505173556 5 355 1.6 4.8 0.00 0.15 0.15 71 1013.0
20260505173057 5 5 1.6 4.8 0.00 0.15 0.15 71 1012.9
20260505172557 5 126 0.0 4.8 0.00 0.15 0.15 70 1012.8
20260505172057 5 171 3.2 6.4 0.00 0.15 0.15 71 1012.9
20260505171556 5 174 3.2 6.4 0.00 0.15 0.15 72 1012.8
20260505171058 5 206 1.6 4.8 0.00 0.15 0.15 72 1012.8
20260505170604 5 211 3.2 4.8 0.00 0.15 0.15 73 1012.8
20260505170105 5 216 1.6 4.8 0.00 0.15 0.15 73 1012.8
20260505165555 5 194 3.2 4.8 0.00 0.15 0.15 73 1012.8
20260505165056 6 170 0.0 8.0 0.00 0.15 0.15 73 1012.9
20260505164556 6 153 1.6 8.0 0.00 0.15 0.15 73 1012.8
20260505164056 6 207 4.8 8.0 0.00 0.15 0.15 72 1012.8
20260505163558 6 138 1.6 9.7 0.00 0.15 0.15 73 1012.8
20260505163102 6 224 6.4 9.7 0.00 0.15 0.15 73 1012.8
20260505162555 6 182 4.8 8.0 0.00 0.15 0.15 74 1012.7
20260505162054 6 215 3.2 6.4 0.03 0.15 0.15 76 1012.8
20260505161555 6 225 1.6 6.4 0.03 0.15 0.15 76 1012.7
20260505161052 6 223 1.6 6.4 0.03 0.15 0.15 76 1012.7
20260505160552 6 223 1.6 6.4 0.03 0.15 0.15 75 1012.8
20260505153105 5 355 1.6 6.4 0.03 0.15 0.15 81 1012.9
20260505152549 5 162 0.0 12.9 0.03 0.15 0.15 80 1013.0
20260505152050 5 71 4.8 12.9 0.03 0.15 0.15 77 1013.0
20260505151550 5 5 3.2 9.7 0.00 0.13 0.13 76 1013.0
20260505151049 6 100 3.2 11.3 0.00 0.13 0.13 77 1013.0
20260505150549 6 204 4.8 12.9 0.00 0.13 0.13 80 1012.8
20260505150107 5 229 8.0 12.9 0.00 0.13 0.13 79 1012.8
20260505140546 3 355 1.6 8.0 0.00 0.23 0.13 83 1013.1
20260505124543 3 182 8.0 14.5 0.03 0.41 0.13 85 1013.0
20260505124043 4 211 8.0 14.5 0.03 0.41 0.13 86 1013.0
20260505123542 3 191 8.0 16.1 0.03 0.41 0.13 86 1013.1
20260505123104 4 216 9.7 16.1 0.03 0.41 0.13 86 1013.1
20260505122542 3 196 9.7 17.7 0.03 0.41 0.13 86 1013.0
20260505122043 3 211 9.7 19.3 0.03 0.41 0.13 86 1012.9
20260505121541 3 143 6.4 20.9 0.05 0.41 0.13 87 1012.8
20260505121044 3 190 9.7 20.9 0.05 0.41 0.13 88 1012.8
20260505120540 3 188 11.3 19.3 0.05 0.41 0.13 88 1012.8
20260505120049 3 160 6.4 19.3 0.08 0.41 0.13 88 1012.9
20260505115541 2 181 9.7 14.5 0.10 0.41 0.13 88 1012.9
20260505115040 2 202 9.7 16.1 0.10 0.41 0.13 87 1013.1
20260505114551 2 169 9.7 19.3 0.10 0.41 0.13 87 1013.1
20260505114040 2 174 6.4 12.9 0.08 0.38 0.10 87 1013.1
20260505113539 2 198 8.0 12.9 0.08 0.38 0.10 87 1013.1
20260505113039 2 206 6.4 12.9 0.08 0.38 0.10 86 1013.1
20260505112538 2 150 6.4 12.9 0.08 0.38 0.10 85 1013.1
20260505112037 2 175 8.0 12.9 0.08 0.38 0.10 84 1013.1
20260505111538 2 143 6.4 12.9 0.08 0.38 0.10 83 1013.1
20260505111037 2 202 8.0 12.9 0.05 0.36 0.08 82 1013.2
20260505110537 2 200 4.8 12.9 0.05 0.36 0.05 81 1013.1
20260505102033 4 257 9.7 20.9 0.00 0.33 0.03 73 1012.8
20260505101537 4 232 17.7 24.1 0.00 0.33 0.03 74 1012.6
20260505101031 4 186 8.0 19.3 0.00 0.33 0.03 71 1012.3
20260505100535 5 227 14.5 19.3 0.00 0.33 0.03 72 1012.4
20260505100033 5 186 3.2 16.1 0.00 0.33 0.03 66 1012.3
20260505095531 5 275 9.7 20.9 0.00 0.33 0.03 68 1012.3
20260505095030 5 218 6.4 17.7 0.00 0.33 0.03 65 1012.0
20260505094531 5 227 6.4 17.7 0.00 0.33 0.03 65 1012.0
20260505094031 5 223 11.3 17.7 0.00 0.33 0.03 65 1012.0
20260505093530 5 213 8.0 12.9 0.00 0.33 0.03 63 1012.0
20260505093037 5 209 6.4 12.9 0.00 0.33 0.03 64 1012.0
20260505092530 5 202 8.0 14.5 0.00 0.33 0.03 63 1012.0
20260505092028 5 217 9.7 14.5 0.00 0.33 0.03 63 1012.0
20260505091539 5 203 8.0 12.9 0.00 0.33 0.03 60 1012.0
20260505091028 5 195 6.4 11.3 0.00 0.33 0.03 60 1011.9
20260505090528 5 213 6.4 12.9 0.00 0.33 0.03 60 1012.0
20260505090043 6 189 4.8 12.9 0.00 0.33 0.03 61 1012.0
20260505085526 6 200 8.0 12.9 0.03 0.33 0.03 63 1012.0
20260505085026 5 209 4.8 11.3 0.03 0.33 0.03 67 1012.0
20260505084526 5 213 4.8 14.5 0.03 0.33 0.03 66 1011.9
20260505084023 5 233 8.0 14.5 0.03 0.33 0.03 69 1012.0
20260505083522 5 212 4.8 9.7 0.03 0.33 0.03 67 1012.0
20260505083026 5 239 3.2 9.7 0.03 0.33 0.03 68 1011.9
20260505082524 5 227 6.4 9.7 0.03 0.33 0.03 69 1011.9
20260505082021 5 225 4.8 11.3 0.03 0.33 0.03 70 1011.8
20260505081529 5 219 4.8 9.7 0.03 0.33 0.03 72 1011.9
20260505081019 5 177 1.6 8.0 0.03 0.33 0.03 74 1011.8
20260505080518 4 190 3.2 8.0 0.03 0.33 0.03 74 1011.9
20260505080038 4 200 3.2 6.4 0.03 0.33 0.03 75 1011.9
20260505075515 4 219 3.2 6.4 0.03 0.33 0.03 75 1011.9
20260505075014 4 132 1.6 3.2 0.00 0.30 0.00 78 1012.1
20260505074515 3 129 1.6 3.2 0.00 0.30 0.00 78 1012.1
20260505074013 3 174 1.6 6.4 0.00 0.30 0.00 77 1012.1
20260505073512 3 167 1.6 4.8 0.00 0.30 0.00 79 1012.1
20260505073015 2 135 1.6 4.8 0.00 0.30 0.00 79 1012.2
20260505072509 2 138 1.6 4.8 0.00 0.30 0.00 79 1012.2
20260505072012 2 111 1.6 4.8 0.00 0.30 0.00 79 1012.2
20260505071509 2 132 1.6 4.8 0.00 0.30 0.00 79 1012.1
20260505071008 2 126 3.2 4.8 0.00 0.30 0.00 79 1012.2
20260505070510 2 128 1.6 4.8 0.00 0.30 0.00 79 1012.2
20260505070010 2 126 1.6 4.8 0.00 0.30 0.00 79 1012.3
20260505065508 2 138 1.6 6.4 0.00 0.30 0.00 79 1012.3
20260505065006 1 135 3.2 4.8 0.00 0.30 0.00 80 1012.3
20260505064508 1 133 1.6 4.8 0.00 0.30 0.00 80 1012.2
20260505064012 1 147 1.6 4.8 0.00 0.30 0.00 81 1012.2
20260505063513 1 149 1.6 4.8 0.00 0.30 0.00 81 1012.2
20260505063007 1 141 1.6 4.8 0.00 0.30 0.00 81 1012.2
20260505062507 1 141 1.6 4.8 0.00 0.30 0.00 82 1012.1
20260505062006 1 146 3.2 4.8 0.00 0.30 0.00 82 1012.1
20260505061510 1 148 1.6 4.8 0.00 0.30 0.00 82 1012.1
20260505061006 1 152 1.6 4.8 0.00 0.30 0.00 82 1012.1
20260505060508 1 132 1.6 4.8 0.00 0.30 0.00 82 1012.2
20260505060013 1 103 1.6 4.8 0.00 0.30 0.00 82 1012.2
20260505055506 1 97 3.2 4.8 0.00 0.30 0.00 82 1012.2
20260505055006 1 110 1.6 6.4 0.00 0.30 0.00 81 1012.2
20260505054510 1 101 3.2 6.4 0.00 0.30 0.00 81 1012.1
20260505054003 1 90 3.2 6.4 0.00 0.30 0.00 81 1012.1
20260505053504 1 96 3.2 6.4 0.00 0.30 0.00 82 1012.1
20260505053009 1 105 3.2 6.4 0.00 0.30 0.00 82 1012.1
20260505052506 1 102 3.2 6.4 0.00 0.30 0.00 82 1012.1
20260505052003 0 96 3.2 6.4 0.00 0.30 0.00 81 1012.2
20260505051504 0 84 3.2 6.4 0.00 0.30 0.00 81 1012.1
20260505051003 0 98 3.2 6.4 0.00 0.30 0.00 81 1012.2
20260505050506 0 108 3.2 6.4 0.00 0.30 0.00 81 1012.1
20260505041610 0 94 3.2 6.4 0.00 0.30 0.00 80 1011.8
20260505041059 0 109 4.8 6.4 0.00 0.30 0.00 80 1011.8
20260505040603 0 108 3.2 6.4 0.00 0.30 0.00 80 1011.8
20260505035606 0 106 3.2 6.4 0.00 0.30 0.00 79 1011.7
20260505035057 0 92 3.2 6.4 0.00 0.30 0.00 78 1011.7
20260505034056 1 96 3.2 6.4 0.00 0.30 0.00 78 1011.6
20260505033555 1 96 1.6 6.4 0.00 0.30 0.00 78 1011.5
20260505033055 1 96 3.2 9.7 0.00 0.30 0.00 78 1011.5
20260505032554 1 98 4.8 9.7 0.00 0.30 0.00 79 1011.6
20260505032100 1 90 3.2 8.0 0.00 0.30 0.00 79 1011.5
20260505031559 1 104 3.2 6.4 0.00 0.30 0.00 79 1011.6
20260505031054 1 88 3.2 8.0 0.00 0.30 0.00 79 1011.7
20260505030554 1 88 4.8 8.0 0.00 0.30 0.00 79 1011.6
20260505030054 1 92 4.8 8.0 0.00 0.30 0.00 79 1011.7
20260505025554 1 85 3.2 6.4 0.00 0.30 0.00 79 1011.8
20260505025053 1 71 3.2 6.4 0.00 0.30 0.00 79 1011.9
20260505024054 1 85 3.2 8.0 0.00 0.30 0.00 79 1011.9